Location: Newark
(60.6561°N, 46.5772°E)
Time: 07:21:26
(UTC+00:00)

Tiros 1 despin weight - Pass Details

Date: 23 October 2019
Orbit: 594 x 642 km, 48.2° (Epoch: 14 November)

Event Time Altitude Azimuth Distance (km) Brightness Sun altitude
Rises 01:14:14 0° 256° (WSW) 2,946 - -20.0°
Reaches altitude 10° 01:17:43 10° 229° (SW) 2,037 - -19.6°
Maximum altitude 01:19:53 13° 201° (SSW) 1,833 - -19.3°
Exits shadow 01:20:34 13° 192° (SSW) 1,853 ? -19.2°
Drops below altitude 10° 01:22:02 10° 174° (S) 2,032 ? -19.1°
Sets 01:25:31 0° 147° (SSE) 2,935 ? -18.6°
